When you browse on this site, cookies collect data to enhance your experience and personalize the content and advertising you see.
Visit our Privacy Policy to learn more. By continuing to use the site, you agree to this use of cookies and data.
  • In Latvia
  • List of Countries
  • For 7 days
  • Water Temperature
  • Satellite Maps
  • Weather Map
  • Weather Widgets
  • user-avatar
    Login

    Hourly Weather Zalazie

    Today, 16 June, Sunday

    Time Temperature Precipitation Wind Pressure Humidity
    00:00 +23°C° 0 mm 2 mps 741 mmHg 87%
    01:00 +21°C° 0 mm 2 mps 741 mmHg 87%
    02:00 +21°C° 0 mm 2 mps 741 mmHg 85%
    03:00 +21°C° 0 mm 2 mps 741 mmHg 86%
    04:00 +21°C° 0 mm 2 mps 741 mmHg 86%
    05:00 +21°C° 0 mm 2 mps 741 mmHg 87%
    06:00 +23°C° 0 mm 2 mps 741 mmHg 85%
    07:00 +24°C° 0 mm 3 mps 741 mmHg 84%
    08:00 +26°C° 0 mm 3 mps 742 mmHg 82%
    09:00 +27°C° 0 mm 3 mps 742 mmHg 79%
    10:00 +28°C° 0 mm 3 mps 742 mmHg 75%
    11:00 +29°C° 0 mm 3 mps 742 mmHg 72%
    12:00 +30°C° 0 mm 3 mps 742 mmHg 68%
    13:00 +31°C° 0 mm 3 mps 742 mmHg 65%
    14:00 +31°C° 0 mm 3 mps 742 mmHg 62%
    15:00 +31°C° 0.7 mm 3 mps 742 mmHg 65%
    16:00 +30°C° 0.7 mm 3 mps 742 mmHg 67%
    17:00 +30°C° 0.7 mm 3 mps 742 mmHg 70%
    18:00 +28°C° 1.2 mm 3 mps 742 mmHg 76%
    19:00 +27°C° 1.2 mm 3 mps 742 mmHg 81%
    20:00 +25°C° 1.2 mm 3 mps 743 mmHg 86%
    21:00 +24°C° 1.5 mm 3 mps 743 mmHg 88%
    22:00 +22°C° 1.5 mm 4 mps 743 mmHg 90%
    23:00 +21°C° 1.5 mm 4 mps 743 mmHg 92%

    Tomorrow, 17 June, Monday

    Time Temperature Precipitation Wind Pressure Humidity
    00:00 +20°C° 0 mm 3 mps 744 mmHg 93%
    01:00 +20°C° 0 mm 3 mps 744 mmHg 94%
    02:00 +19°C° 0 mm 2 mps 744 mmHg 96%
    03:00 +19°C° 0 mm 2 mps 744 mmHg 96%
    04:00 +18°C° 0 mm 3 mps 744 mmHg 96%
    05:00 +18°C° 0 mm 3 mps 744 mmHg 96%
    06:00 +19°C° 0 mm 3 mps 745 mmHg 93%
    07:00 +19°C° 0 mm 3 mps 745 mmHg 90%
    08:00 +20°C° 0 mm 3 mps 746 mmHg 87%
    09:00 +21°C° 0 mm 3 mps 746 mmHg 83%
    10:00 +22°C° 0 mm 3 mps 746 mmHg 79%
    11:00 +22°C° 0 mm 3 mps 746 mmHg 74%
    12:00 +24°C° 0 mm 3 mps 746 mmHg 70%
    13:00 +25°C° 0 mm 3 mps 746 mmHg 66%
    14:00 +26°C° 0 mm 2 mps 746 mmHg 62%
    15:00 +26°C° 0 mm 3 mps 745 mmHg 65%
    16:00 +26°C° 0 mm 3 mps 745 mmHg 67%
    17:00 +26°C° 0 mm 4 mps 745 mmHg 70%
    18:00 +25°C° 0 mm 3 mps 744 mmHg 75%
    19:00 +22°C° 0 mm 3 mps 744 mmHg 79%
    20:00 +21°C° 0 mm 2 mps 744 mmHg 84%
    21:00 +20°C° 0 mm 2 mps 745 mmHg 86%
    22:00 +20°C° 0 mm 2 mps 745 mmHg 88%
    23:00 +19°C° 0 mm 2 mps 745 mmHg 91%

    Day after tomorrow, 18 June, Tuesday

    Time Temperature Precipitation Wind Pressure Humidity
    00:00 +18°C° 0 mm 2 mps 745 mmHg 92%
    01:00 +18°C° 0 mm 3 mps 745 mmHg 93%
    02:00 +17°C° 0 mm 3 mps 745 mmHg 94%
    03:00 +17°C° 0 mm 2 mps 745 mmHg 95%
    04:00 +17°C° 0 mm 2 mps 745 mmHg 95%
    05:00 +17°C° 0 mm 2 mps 745 mmHg 96%
    06:00 +18°C° 0 mm 2 mps 745 mmHg 92%
    07:00 +19°C° 0 mm 2 mps 745 mmHg 88%
    08:00 +20°C° 0 mm 3 mps 745 mmHg 84%
    09:00 +21°C° 0 mm 3 mps 745 mmHg 83%
    10:00 +21°C° 0 mm 3 mps 745 mmHg 82%
    11:00 +22°C° 0 mm 3 mps 745 mmHg 80%
    12:00 +25°C° 0 mm 3 mps 745 mmHg 71%
    13:00 +26°C° 0 mm 3 mps 745 mmHg 71%
    14:00 +26°C° 0 mm 4 mps 744 mmHg 70%
    15:00 +26°C° 0 mm 4 mps 744 mmHg 72%
    16:00 +26°C° 0 mm 4 mps 744 mmHg 73%
    17:00 +26°C° 0 mm 4 mps 744 mmHg 74%
    18:00 +25°C° 0 mm 4 mps 744 mmHg 78%
    19:00 +24°C° 0 mm 3 mps 744 mmHg 82%
    20:00 +22°C° 0 mm 3 mps 743 mmHg 86%
    21:00 +21°C° 0 mm 3 mps 744 mmHg 87%
    22:00 +21°C° 0 mm 3 mps 744 mmHg 88%
    23:00 +20°C° 0 mm 3 mps 744 mmHg 89%

    19 June, Wednesday

    Time Temperature Precipitation Wind Pressure Humidity
    00:00 +20°C° 0 mm 3 mps 743 mmHg 90%
    01:00 +19°C° 0 mm 3 mps 743 mmHg 92%
    02:00 +19°C° 0 mm 3 mps 743 mmHg 93%
    03:00 +19°C° 0 mm 3 mps 743 mmHg 93%
    04:00 +19°C° 0 mm 3 mps 743 mmHg 93%
    05:00 +19°C° 0 mm 4 mps 743 mmHg 93%
    06:00 +20°C° 0 mm 4 mps 743 mmHg 90%
    07:00 +21°C° 0 mm 4 mps 743 mmHg 87%
    08:00 +23°C° 0 mm 5 mps 743 mmHg 84%
    09:00 +25°C° 0.5 mm 5 mps 743 mmHg 82%
    10:00 +26°C° 0.5 mm 4 mps 743 mmHg 80%
    11:00 +27°C° 0.5 mm 4 mps 743 mmHg 77%
    12:00 +28°C° 0.6 mm 4 mps 742 mmHg 73%
    13:00 +29°C° 0.6 mm 4 mps 742 mmHg 69%
    14:00 +30°C° 0.6 mm 4 mps 742 mmHg 64%
    15:00 +29°C° 0.9 mm 4 mps 742 mmHg 68%
    16:00 +29°C° 0.9 mm 4 mps 741 mmHg 71%
    17:00 +28°C° 0.9 mm 4 mps 741 mmHg 74%
    18:00 +27°C° 0.5 mm 3 mps 741 mmHg 78%
    19:00 +25°C° 0.5 mm 3 mps 741 mmHg 82%
    20:00 +24°C° 0.5 mm 3 mps 741 mmHg 87%
    21:00 +22°C° 0 mm 3 mps 741 mmHg 88%
    22:00 +22°C° 0 mm 3 mps 741 mmHg 90%
    23:00 +21°C° 0 mm 4 mps 742 mmHg 92%

    20 June, Thursday

    Time Temperature Precipitation Wind Pressure Humidity
    00:00 +21°C° 0 mm 3 mps 741 mmHg 92%
    01:00 +20°C° 0 mm 3 mps 741 mmHg 93%
    02:00 +20°C° 0 mm 3 mps 741 mmHg 94%
    03:00 +20°C° 0 mm 3 mps 741 mmHg 93%
    04:00 +20°C° 0 mm 2 mps 741 mmHg 93%
    05:00 +19°C° 0 mm 2 mps 741 mmHg 92%
    06:00 +21°C° 0 mm 2 mps 741 mmHg 88%
    07:00 +23°C° 0 mm 2 mps 741 mmHg 84%
    08:00 +25°C° 0 mm 2 mps 742 mmHg 79%
    09:00 +26°C° 0.2 mm 2 mps 742 mmHg 74%
    10:00 +28°C° 0.2 mm 3 mps 741 mmHg 68%
    11:00 +29°C° 0.2 mm 3 mps 741 mmHg 63%
    12:00 +30°C° 0 mm 3 mps 741 mmHg 60%
    13:00 +30°C° 0 mm 3 mps 741 mmHg 57%
    14:00 +31°C° 0 mm 3 mps 741 mmHg 54%
    15:00 +31°C° 0.3 mm 2 mps 741 mmHg 58%
    16:00 +30°C° 0.3 mm 2 mps 741 mmHg 62%
    17:00 +30°C° 0.3 mm 2 mps 741 mmHg 66%
    18:00 +28°C° 0.6 mm 2 mps 741 mmHg 70%
    19:00 +27°C° 0.6 mm 1 mps 741 mmHg 74%
    20:00 +23°C° 0.6 mm 0 mps 741 mmHg 78%
    21:00 +24°C° 0 mm 1 mps 741 mmHg 81%
    22:00 +23°C° 0 mm 1 mps 742 mmHg 83%
    23:00 +22°C° 0 mm 1 mps 742 mmHg 86%

    21 June, Friday

    Time Temperature Precipitation Wind Pressure Humidity
    00:00 +22°C° 0 mm 1 mps 742 mmHg 87%
    01:00 +21°C° 0 mm 1 mps 742 mmHg 89%
    02:00 +21°C° 0 mm 1 mps 742 mmHg 90%
    03:00 +20°C° 0 mm 1 mps 742 mmHg 91%
    04:00 +20°C° 0 mm 1 mps 742 mmHg 92%
    05:00 +18°C° 0 mm 0 mps 742 mmHg 93%
    06:00 +19°C° 0 mm 0 mps 742 mmHg 89%
    07:00 +21°C° 0 mm 0 mps 743 mmHg 85%
    08:00 +22°C° 0 mm 0 mps 743 mmHg 81%
    09:00 +24°C° 0 mm 0 mps 743 mmHg 76%
    10:00 +25°C° 0 mm 0 mps 743 mmHg 70%
    11:00 +27°C° 0 mm 0 mps 743 mmHg 65%
    12:00 +29°C° 0 mm 1 mps 743 mmHg 62%
    13:00 +30°C° 0 mm 1 mps 743 mmHg 58%
    14:00 +31°C° 0 mm 1 mps 742 mmHg 55%
    15:00 +31°C° 0.4 mm 1 mps 742 mmHg 58%
    16:00 +30°C° 0.4 mm 1 mps 742 mmHg 62%
    17:00 +30°C° 0.4 mm 2 mps 742 mmHg 66%
    18:00 +28°C° 0.3 mm 2 mps 741 mmHg 72%
    19:00 +27°C° 0.3 mm 2 mps 741 mmHg 79%
    20:00 +25°C° 0.3 mm 2 mps 741 mmHg 85%
    21:00 +24°C° 0 mm 2 mps 741 mmHg 87%
    22:00 +24°C° 0 mm 2 mps 741 mmHg 88%
    23:00 +23°C° 0 mm 2 mps 742 mmHg 90%
    Show more